Location: Tierz
(42.1336°N, 0.3549°W)
Time: 00:13:54
(UTC+00:00)

SL-08 R/B - Visible Passes

Search period start: 28 February 2021 00:00
Search period end: 10 March 2021 00:00
Orbit: 947 x 993 km, 83.0° (Epoch: 27 February)

Date Brightness Start Highest point End Pass type
(mag) Time Alt. Az. Time Alt. Az. Time Alt. Az.
28 Feb 6.2 03:13:52 10° NNE 03:19:12 29° ENE 03:24:26 10° SE visible
28 Feb 4.7 04:58:49 10° NNW 05:04:35 42° W 05:10:16 10° SSW visible
28 Feb 7.1 18:29:32 10° WSW 18:34:14 21° WNW 18:38:56 10° NNW visible
01 Mar 5.2 03:37:10 10° N 03:43:10 50° ENE 03:49:05 10° SSE visible
01 Mar 5.4 05:23:13 10° NNW 05:28:01 24° W 05:32:46 10° SW visible
01 Mar 7.5 18:56:07 10° W 18:58:31 12° WNW 19:00:55 10° NW visible
02 Mar 7.1 02:17:57 10° NE 02:20:46 13° ENE 02:23:33 10° E visible
02 Mar 4.4 04:00:47 10° N 04:06:59 87° E 04:13:06 10° S visible
02 Mar 6.0 05:48:33 10° NW 05:51:17 13° WNW 05:54:00 10° WSW visible
03 Mar 6.4 02:40:13 10° NNE 02:45:01 23° ENE 02:48:54 13° ESE visible
03 Mar 4.5 04:24:39 10° NNW 04:30:38 54° W 04:33:02 34° SSW visible
04 Mar 5.6 03:03:19 10° N 03:09:04 39° ENE 03:09:39 38° E visible
04 Mar 5.1 04:48:51 10° NNW 04:54:05 31° W 04:54:05 31° W visible
04 Mar 7.3 18:20:36 10° W 18:24:15 16° WNW 18:27:54 10° NNW visible
05 Mar 4.8 03:26:48 10° N 03:31:59 59° NNE 03:31:59 59° NNE visible
05 Mar 5.9 05:13:39 10° NW 05:16:27 17° WNW 05:16:27 17° WNW visible
06 Mar 6.7 02:06:40 10° NNE 02:10:14 18° ENE 02:10:14 18° ENE visible
06 Mar 5.0 03:50:33 10° NNW 03:54:43 44° NNW 03:54:43 44° NNW visible
07 Mar 6.2 02:29:31 10° NNE 02:33:10 27° NE 02:33:10 27° NE visible
07 Mar 5.6 04:14:35 10° NNW 04:17:41 27° NW 04:17:41 27° NW visible
08 Mar 5.8 02:52:52 10° N 02:56:15 32° NNE 02:56:15 32° NNE visible
08 Mar 6.1 04:39:04 10° NW 04:40:46 16° NW 04:40:46 16° NW visible
09 Mar 7.1 01:33:24 10° NNE 01:34:55 13° NE 01:34:55 13° NE visible
09 Mar 5.8 03:16:30 10° N 03:19:25 30° N 03:19:25 30° N visible
